Location: Palo Alto
(37.4420°N, 122.1420°W)
Time: 08:47:57
(UTC-07:00)

X-37B - Pass Details

Date: 12 August 2020
Orbit: 386 x 387 km, 45.0° (Epoch: 18 September)

Event Time Altitude Azimuth Distance (km) Brightness Sun altitude
Rises 20:46:33 0° 280° (W) 2,261 6.2 -8.7°
Reaches altitude 10° 20:48:54 10° 296° (WNW) 1,408 5.1 -9.1°
Maximum altitude 20:51:29 23° 351° (N) 886 2.8 -9.6°
Drops below altitude 10° 20:54:05 10° 45° (NE) 1,410 3.2 -10.0°
Enters shadow 20:55:55 - 59° (ENE) 2,071 4.0 -10.4°
